Location: Newark
(45.6578°N, 6.1797°E)
Time: 08:24:20
(UTC+00:00)

N. Korean satellite - Visible Passes

Search period start: 17 October 2019 00:00
Search period end: 27 October 2019 00:00
Orbit: 455 x 508 km, 97.2° (Epoch: 16 October)

Date Brightness Start Highest point End Pass type
(mag) Time Alt. Az. Time Alt. Az. Time Alt. Az.
17 Oct 10.1 04:32:40 10° ENE 04:34:42 14° E 04:36:44 10° SE visible
18 Oct 10.4 17:52:59 10° WSW 17:54:08 11° W 17:55:17 10° WNW visible
19 Oct 8.0 05:14:15 10° NNE 05:17:44 45° E 05:21:14 10° S visible
19 Oct 9.5 17:25:53 10° SSW 17:28:37 22° W 17:31:23 10° NW visible
20 Oct 9.4 04:49:24 10° NE 04:52:19 23° E 04:55:16 10° SSE visible
21 Oct 10.3 04:25:23 10° ENE 04:26:50 12° E 04:28:17 10° ESE visible
22 Oct 6.8 05:31:36 10° NNE 05:35:15 77° ESE 05:38:55 10° S visible
22 Oct 10.1 17:44:20 10° SW 17:46:13 14° W 17:48:08 10° WNW visible
23 Oct 8.4 05:06:30 10° NNE 05:09:54 36° E 05:13:19 10° SSE visible
23 Oct 9.0 17:17:45 10° SSW 17:20:44 27° W 17:23:46 10° NW visible
24 Oct 9.7 04:41:47 10° NE 04:44:27 19° E 04:47:08 10° SE visible
26 Oct 7.3 05:23:45 10° NNE 05:27:24 61° ESE 05:31:04 10° S visible
26 Oct 9.9 17:35:55 10° SW 17:38:17 17° W 17:40:41 10° NW visible
